User: anonymous   Login
Location: Washington
(38.8950°N, 77.0370°W)
Time: 11:26:48
(UTC-04:00)
Language:

IDEFIX/ARIANE 42P - Orbit

View from above orbital plane
View from above orbital plane
View from above satellite
View from above satellite

Ground track
Ground track

The orbit data is extracted from the following two-line orbital elements,

1 27422U 02021B   16209.11690916 -.00000031  00000-0  35586-5 0  9990
2 27422  98.2296 221.4336 0013520 117.6021 242.6537 14.29247359740247
Epoch (UTC): 27 July 2016 02:48:20
Eccentricity: 0.0013520
inclination: 98.2296°
perigee height: 784 km
apogee height: 804 km
right ascension of ascending node: 221.4336°
argument of perigee: 117.6021°
revolutions per day: 14.29247359
mean anomaly at epoch: 242.6537°
orbit number at epoch: 74024

The dashed part of the orbit path shows where the satellite is in the earth's shadow,  

DLR